Tracking 30744 objects as of 23-Jun-2025
HD Live streaming from Space Station
objects crossing your sky now

STARLINK-30591

Track STARLINK-30591 now!
10-day predictions
STARLINK-30591 is classified as:


NORAD ID: 58088
Int'l Code: 2023-160P
Perigee: 565.4 km
Apogee: 567.0 km
Inclination: 43.0 °
Period: 95.8 minutes
Semi major axis: 6937 km
RCS: Unknown
Launch date: October 18, 2023
Source: United States (US)
Launch site: AIR FORCE EASTERN TEST RANGE (AFETR)
Your satellite tracking list
Your tracking list is empty




NASA's NSSDC Master Catalog

Two Line Element Set (TLE):
1 58088U 23160P   25173.05506387 -.00000405  00000-0 -14911-4 0  9994
2 58088  43.0053  56.3043 0001113 245.7345 114.3381 15.02538024 93714
Source of the keplerian elements: AFSPC